Home > Time Zones > World Clock > Weather > U.S.A. > Gary > Past weeks

Flag for U.S.A. Weather past 2 weeks in Gary, Indiana, U.S.A.

Now
72 °F

Sunny.


Feels Like: 74 °F
Forecast: 64 / 74 °F
Wind: 8 mph from Northeast

Location: Lansing Municipal Airport

Current Time: Aug 27, 2014 at 6:33:24 PM

Latest Report: Aug 27, 2014 at 5:55 PM


Visibility: 10 mi

Pressure: 30.12 "Hg

Humidity: 73%

Dew point: 62 °F

Location of GaryLocation

Historic Weather in Gary — Graph

°F

Gary temperature yesterday

Maximum temperature yesterday: 81 °F (at 4:55 PM)
Minimum temperature yesterday: 66 °F (at 5:55 AM)
Average temperature yesterday: 72 °F

Past Weeks' High & Low Weather Summary

 TemperatureHumidityPressure
High89 °F (Aug 25, 12:55 PM)100% (Aug 17, 4:35 AM)30.15 "Hg (Aug 17, 4:35 AM)
Low46 °F (Aug 15, 5:55 AM)37% (Aug 15, 3:55 PM)29.72 "Hg (Aug 19, 3:15 PM)
Average71 °F82%29.97 "Hg
* Reported Aug 12 5:15 PM — Aug 27 5:15 PM, Gary, Weather by CustomWeather, © 2014

Note: Actual official high and low records may vary slightly from our data, if they occured in-between our weather recording intervals... More about our weather records

Advertising

Gary weather history for previous 24 hours

 ConditionsComfort  
Time TempWeatherWind HumidityBarometerVisibility
5:15 PM
Aug 27
72 °FSunny.12 mph72%30.13 "Hg10 mi
4:55 PM73 °FSunny.12 mph71%30.13 "Hg10 mi
4:35 PM73 °FSunny.13 mph69%30.13 "Hg10 mi
4:15 PM74 °FSunny.12 mph69%30.13 "Hg10 mi
3:55 PM76 °FSunny.10 mph66%30.13 "Hg10 mi
3:15 PM76 °FSunny.6 mph62%30.13 "Hg10 mi
2:55 PM77 °FSunny.8 mph62%30.13 "Hg10 mi
2:15 PM78 °FSunny.7 mph59%30.14 "Hg10 mi
1:55 PM77 °FSunny.8 mph61%30.14 "Hg10 mi
12:55 PM77 °FSunny.6 mph57%30.14 "Hg10 mi
12:35 PM77 °FSunny.6 mph60%30.14 "Hg10 mi
12:15 PM76 °FSunny.8 mph60%30.14 "Hg10 mi
11:15 AM75 °FSunny.6 mph64%30.14 "Hg10 mi
10:55 AM75 °FSunny.No wind63%30.15 "Hg10 mi
9:15 AM73 °FSunny.6 mph70%30.14 "Hg10 mi
8:55 AM72 °FSunny.9 mph69%30.14 "Hg10 mi
8:15 AM71 °FSunny.5 mph76%30.15 "Hg10 mi
7:55 AM70 °FSunny.5 mph79%30.15 "Hg10 mi
7:35 AM69 °FSunny.No wind82%30.14 "Hg10 mi
7:15 AM69 °FSunny.3 mph79%30.13 "Hg10 mi
6:55 AM67 °FSunny.5 mph86%30.13 "Hg10 mi
6:35 AM67 °FSunny.No wind86%30.13 "Hg10 mi
6:15 AM67 °FSunny.No wind86%30.13 "Hg10 mi
5:55 AM68 °FPassing clouds.5 mph88%30.12 "Hg10 mi
5:35 AM69 °FMostly cloudy.No wind91%30.13 "Hg10 mi
5:15 AM69 °FMostly cloudy.5 mph91%30.12 "Hg10 mi
4:55 AM69 °FMostly cloudy.3 mph93%30.12 "Hg10 mi
4:35 AM69 °FMostly cloudy.5 mph92%30.12 "Hg10 mi
4:15 AM69 °FOvercast.3 mph92%30.11 "Hg10 mi
3:55 AM69 °FMostly cloudy.3 mph93%30.12 "Hg10 mi
3:15 AM70 °FOvercast.3 mph92%30.12 "Hg10 mi
2:55 AM69 °FMostly cloudy.3 mph94%30.11 "Hg10 mi
2:35 AM69 °FPartly cloudy.No wind94%30.11 "Hg10 mi
2:15 AM69 °FPassing clouds.3 mph94%30.11 "Hg10 mi
1:55 AM69 °FPassing clouds.3 mph94%30.11 "Hg10 mi
1:35 AM70 °FOvercast.3 mph94%30.11 "Hg10 mi
1:15 AM70 °FPassing clouds.No wind95%30.11 "Hg10 mi
12:55 AM69 °FClear.No wind95%30.11 "Hg10 mi
12:35 AM69 °FPassing clouds.No wind95%30.12 "Hg10 mi
12:15 AM69 °FClear.No wind94%30.11 "Hg10 mi
11:55 PM
Aug 26
69 °FClear.3 mph95%30.11 "Hg10 mi
11:35 PM70 °FClear.No wind95%30.12 "Hg10 mi
11:15 PM70 °FClear.3 mph95%30.11 "Hg10 mi
10:55 PM70 °FClear.3 mph95%30.11 "Hg10 mi
10:35 PM70 °FClear.3 mph95%30.11 "Hg10 mi
10:15 PM70 °FClear.3 mph95%30.10 "Hg10 mi
9:55 PM71 °FClear.5 mph93%30.11 "Hg10 mi
9:35 PM71 °FPassing clouds.5 mph93%30.10 "Hg10 mi
9:15 PM71 °FPassing clouds.No wind92%30.10 "Hg10 mi
8:55 PM72 °FClear.5 mph91%30.09 "Hg10 mi
8:35 PM72 °FClear.5 mph89%30.08 "Hg10 mi
8:15 PM73 °FClear.3 mph85%30.06 "Hg10 mi
7:55 PM74 °FClear.7 mph81%30.06 "Hg10 mi
7:15 PM80 °FSunny.6 mph69%30.06 "Hg10 mi
6:55 PM80 °FSunny.No wind68%30.06 "Hg10 mi
6:35 PM80 °FSunny.5 mph67%30.06 "Hg10 mi
6:15 PM80 °FSunny.No wind67%30.06 "Hg10 mi
Weather by CustomWeather, © 2014

See weather overviewHow to use our weather pages